Regional Weather Roundup
Issued by NWS Memphis, TN

Home | Current Version | Previous Version | Text Only | Print | Product List | Glossary On
Versions: 1 2 3 4 5 6 7 8 9 10 11 12 13 14 15 16 17 18 19 20 21 22 23 24 25 26 27 28 29 30 31 32 33 34 35 36 37 38 39 40 41 42 43 44 45 46 47 48 49 50
000
ASUS44 KMEG 012110
RWRMEG
MEMPHIS CWA HOURLY WEATHER ROUNDUP
NATIONAL WEATHER SERVICE MEMPHIS TN
400 PM CDT WED APR 01 2015

...WEST TENNESSEE...

CITY           SKY/WX    TMP DP  RH WIND       PRES   REMARKS
MEMPHIS INTL   LGT RAIN  78  62  57 S13       29.93F
NWS MEMPHIS      N/A     79 N/A N/A MISG        N/A
JACKSON        PTSUNNY   77  55  46 S7        29.98F
LEXINGTON      MOSUNNY   79  43  27 S7        29.98F
SAVANNAH       MOSUNNY   79  54  41 VRB6      30.00F
DYERSBURG      PTSUNNY   77  46  33 SE10      29.98F
UNION CITY     SUNNY     75  46  35 SE6       29.97F
PARIS          SUNNY     77  37  24 S8        29.99F
HUNTINGDON     MOSUNNY   78  37  22 S9        29.98F


...EASTERN ARKANSAS...

CITY           SKY/WX    TMP DP  RH WIND       PRES   REMARKS
JONESBORO      CLOUDY    72  63  73 SE7       29.94F
WEST MEMPHIS   CLOUDY    77  64  64 SW13G22   29.93F
BATESVILLE     CLOUDY    73  64  73 E7        29.93F
NEWPORT        CLOUDY    72  67  84 E10       29.94F
BLYTHEVILLE    CLOUDY    76  60  57 SE10G20   29.95F
SEARCY         CLOUDY    78  64  61 S12       29.92F
STUTTGART      PTSUNNY   79  64  61 SE14G20   29.93F
PINE BLUFF     PTSUNNY   80  60  50 S15       29.91F
MONTICELLO     PTSUNNY   78  57  48 SW9       29.93S


...NORTH MISSISSIPPI...

CITY           SKY/WX    TMP DP  RH WIND       PRES   REMARKS
TUPELO         PTSUNNY   78  61  55 S7        29.98F
OXFORD         MOSUNNY   77  59  53 S10G17    29.98F
OLIVE BRANCH   PTSUNNY   79  63  57 SE12G21   29.95F
TUNICA         PTSUNNY   73  63  68 S12       29.97F
CLARKSDALE     CLOUDY    75  66  73 S13       29.97F
CORINTH        MOSUNNY   79  59  50 S10       29.98F
GREENWOOD      MOSUNNY   76  61  59 S12       29.98F
COLUMBUS       MOSUNNY   82  59  46 S10       29.98F
STARKVILLE     MOCLDY    79  59  50 S7        29.99F
GOLDEN TRIANGL PTSUNNY   79  61  53 S9        29.99F


...SOUTHEAST MISSOURI...

CITY           SKY/WX    TMP DP  RH WIND       PRES   REMARKS
WEST PLAINS    CLOUDY    66  54  65 SE8       29.94F
POPLAR BLUFF   CLOUDY    72  48  42 SE12      29.95F
CAPE GIRARDEAU MOSUNNY   73  43  33 SE10      29.96F


...NORTHWEST ALABAMA...

CITY           SKY/WX    TMP DP  RH WIND       PRES   REMARKS
MUSCLE SHOALS  MOSUNNY   77  50  38 CALM      30.02F


...MIDDLE TENNESSEE...

CITY           SKY/WX    TMP DP  RH WIND       PRES   REMARKS
NASHVILLE      PTSUNNY   76  29  17 E8        30.04F
CLARKSVILLE    SUNNY     74  36  25 E13       30.02F
COLUMBIA       SUNNY     75  41  29 E6        30.01F


...WESTERN KENTUCKY...

CITY           SKY/WX    TMP DP  RH WIND       PRES   REMARKS
PADUCAH        SUNNY     77  37  23 S12G17    29.98F
FORT CAMPBELL  SUNNY     73  37  26 E12       30.01F


...CENTRAL ARKANSAS...

CITY           SKY/WX    TMP DP  RH WIND       PRES   REMARKS
LITTLE ROCK    CLOUDY    79  61  53 SE14      29.90F


SKY/WX REPORTED AS FAIR MEANS FEW OR NO CLOUDS BELOW
12 THOUSAND FEET.




USA.gov is the U.S. government's official web portal to all federal, state and local government web resources and services.